Location: Newark
(43.0000°N, 1.6781°W)
Time: 23:42:11
(UTC+00:00)

Vanguard 1 Rocket - Pass Details

Date: 19 April 2021
Orbit: 652 x 4224 km, 34.3° (Epoch: 10 May)

Event Time Altitude Azimuth Distance (km) Brightness Sun altitude
Rises 18:35:04 0° 258° (WSW) 3,030 11.5 2.5°
Reaches altitude 10° 18:37:57 10° 236° (SW) 2,278 10.2 2.0°
Maximum altitude 18:41:09 16° 196° (SSW) 2,125 9.4 1.4°
Drops below altitude 10° 18:45:12 10° 159° (SSE) 2,995 9.7 0.7°
Sets 18:49:57 0° 141° (SE) 4,566 10.5 -0.1°
